Date String (YYYY-MM-DD hh:mm:ss) UTC,Instrument flags,absolute air pressure of the measurement (hPa),sample flow rate (lpm),inlet stack bypass flow (lpm),air temperature of the measurement (°C),ambient temperature measured by the external sensor (°C),aerosol sample conditioner tube jacket temperature (°C),OPC LED temperature (°C),internal box temperature (°C),relative humidity of the measurement (%),span deviation,mass concentration of particles derived from Lorenz-Mie calculation of OPC scattering (μg/m³),mass concentration of particles derived from Lorenz-Mie calculation of OPC scattering (μg/m³),mass concentration of particles derived from Lorenz-Mie calculation of OPC scattering (μg/m³)
DateTimeUTC,F1_M11,P_M11,Q1_M11,Q2_M11,T1_M11,T2_M11,T3_M11,T4_M11,T5_M11,U1_M11,ZSPAN_M11,X0_M11,X2_M11,X1_M11
2023-06-07 02:00:00,SystemResetWarning,0829.3,5.02,000.00,029.6,024.2,000.0,038.0,031.0,27.7,0000.0,0010.14,0004.80,0004.36
2023-06-07 02:01:00,SystemResetWarning,0829.3,4.99,000.00,029.5,024.4,000.0,038.0,030.7,29.2,0000.0,0009.54,0004.71,0004.29
2023-06-07 02:02:00,SystemResetWarning,0829.4,5.00,000.00,029.4,024.9,000.0,038.0,030.6,29.0,0000.0,0009.34,0004.64,0004.23
2023-06-07 02:03:00,SystemResetWarning,0829.4,5.00,000.00,029.3,025.4,000.0,037.9,030.6,27.7,0000.0,0009.36,0004.57,0004.15
2023-06-07 02:04:00,SystemResetWarning,0829.4,5.01,000.00,029.3,025.9,000.0,037.9,030.6,28.4,0000.0,0009.11,0004.49,0004.08
2023-06-07 02:05:00,SystemResetWarning,0829.3,5.01,000.00,029.3,026.3,000.0,037.9,030.7,30.1,0000.0,0008.61,0004.46,0004.04
2023-06-07 02:06:00,SystemResetWarning,0829.3,5.00,000.00,029.3,026.7,000.0,037.9,030.7,30.9,0000.0,0008.54,0004.46,0004.05
2023-06-07 02:07:00,SystemResetWarning,0829.2,5.00,000.00,029.3,027.0,000.0,037.9,030.7,29.8,0000.0,0008.56,0004.49,0004.07
2023-06-07 02:08:00,SystemResetWarning,0829.2,5.00,000.00,029.3,027.2,000.0,037.9,030.8,29.4,0000.0,0009.25,0004.48,0004.08
2023-06-07 02:09:00,SystemResetWarning,0829.2,5.00,000.00,029.3,027.4,000.0,037.9,030.8,29.4,0000.0,0009.74,0004.50,0004.07
2023-06-07 02:10:00,SystemResetWarning,0829.2,5.01,000.00,029.3,027.6,000.0,037.9,030.8,28.6,0000.0,0009.93,0004.53,0004.09
2023-06-07 02:11:00,SystemResetWarning,0829.2,4.99,000.00,029.4,027.7,000.0,037.9,030.9,28.6,0000.0,0010.00,0004.56,0004.11
2023-06-07 02:12:00,SystemResetWarning,0829.2,4.99,000.00,029.4,027.9,000.0,037.9,030.9,28.4,0000.0,0009.80,0004.55,0004.12
2023-06-07 02:13:00,SystemResetWarning,0829.2,5.01,000.00,029.4,028.0,000.0,037.9,031.0,28.7,0000.0,0009.86,0004.60,0004.13
2023-06-07 02:14:00,SystemResetWarning,0829.2,5.01,000.00,029.5,028.1,000.0,038.0,031.0,28.5,0000.0,0009.88,0004.63,0004.16
2023-06-07 02:15:00,SystemResetWarning,0829.2,5.00,000.00,029.5,028.1,000.0,038.0,031.1,29.4,0000.0,0009.98,0004.68,0004.20
2023-06-07 02:16:00,SystemResetWarning,0829.1,5.00,000.00,029.5,028.2,000.0,038.0,031.1,31.1,0000.0,0010.08,0004.74,0004.24
2023-06-07 02:17:00,SystemResetWarning,0829.2,5.00,000.00,029.6,028.3,000.0,038.0,031.1,31.1,0000.0,0010.23,0004.78,0004.25
2023-06-07 02:18:00,SystemResetWarning,0829.2,4.99,000.00,029.6,028.3,000.0,038.0,031.2,30.0,0000.0,0009.87,0004.74,0004.23
2023-06-07 02:19:00,SystemResetWarning,0829.2,5.00,000.00,029.6,028.4,000.0,038.1,031.2,29.1,0000.0,0009.13,0004.73,0004.22
2023-06-07 02:20:00,SystemResetWarning,0829.2,5.00,000.00,029.7,028.4,000.0,038.1,031.2,27.7,0000.0,0008.88,0004.67,0004.19
2023-06-07 02:21:00,SystemResetWarning,0829.2,5.00,000.00,029.7,028.4,000.0,038.1,031.3,27.8,0000.0,0008.75,0004.63,0004.16
2023-06-07 02:22:00,SystemResetWarning,0829.2,4.99,000.00,029.7,026.7,000.0,038.1,031.3,27.6,0000.0,0008.86,0004.60,0004.15
2023-06-07 02:23:00,SystemResetWarning,0829.2,5.00,000.00,029.7,025.2,000.0,038.0,031.2,27.4,0000.0,0008.95,0004.62,0004.15
2023-06-07 02:24:00,SystemResetWarning,0829.2,5.00,000.00,029.6,025.0,000.0,038.0,031.0,27.4,0000.0,0009.49,0004.57,0004.12
2023-06-07 02:25:00,SystemResetWarning,0829.2,5.01,000.00,029.5,025.3,000.0,038.0,030.7,28.2,0000.0,0009.81,0004.56,0004.10
2023-06-07 02:26:00,SystemResetWarning,0829.2,5.01,000.00,029.4,025.7,000.0,038.0,030.6,28.7,0000.0,0009.80,0004.52,0004.08
2023-06-07 02:27:00,SystemResetWarning,0829.2,4.99,000.00,029.4,026.1,000.0,038.0,030.6,29.1,0000.0,0009.67,0004.45,0004.04
2023-06-07 02:28:00,SystemResetWarning,0829.2,5.00,000.00,029.4,026.5,000.0,038.0,030.7,29.2,0000.0,0009.54,0004.36,0003.97
2023-06-07 02:29:00,SystemResetWarning,0829.2,5.00,000.00,029.4,026.8,000.0,038.0,030.8,28.8,0000.0,0009.48,0004.33,0003.91
2023-06-07 02:30:00,SystemResetWarning,0829.2,4.99,000.00,029.4,027.1,000.0,038.0,030.8,28.6,0000.0,0009.44,0004.27,0003.87
2023-06-07 02:31:00,SystemResetWarning,0829.3,5.01,000.00,029.4,027.3,000.0,038.0,030.9,28.3,0000.0,0009.12,0004.25,0003.85
2023-06-07 02:32:00,SystemResetWarning,0829.3,5.00,000.00,029.4,027.5,000.0,038.0,030.9,28.2,0000.0,0009.05,0004.21,0003.82
2023-06-07 02:33:00,SystemResetWarning,0829.3,5.00,000.00,029.4,027.7,000.0,038.0,030.9,27.4,0000.0,0008.62,0004.15,0003.78
2023-06-07 02:34:00,SystemResetWarning,0829.3,5.00,000.00,029.5,027.8,000.0,038.0,031.0,27.4,0000.0,0008.02,0004.09,0003.75
2023-06-07 02:35:00,SystemResetWarning,0829.3,5.00,000.00,029.5,027.9,000.0,038.0,031.0,27.2,0000.0,0007.34,0004.04,0003.72
2023-06-07 02:36:00,SystemResetWarning,0829.3,5.00,000.00,029.5,028.0,000.0,038.0,031.1,27.0,0000.0,0006.58,0003.99,0003.68
2023-06-07 02:37:00,SystemResetWarning,0829.4,5.00,000.00,029.5,028.1,000.0,038.0,031.1,26.5,0000.0,0006.14,0003.95,0003.63
2023-06-07 02:38:00,SystemResetWarning,0829.3,5.00,000.00,029.6,028.2,000.0,038.1,031.1,26.2,0000.0,0006.18,0003.91,0003.57
2023-06-07 02:39:00,SystemResetWarning,0829.4,5.00,000.00,029.6,028.3,000.0,038.1,031.2,25.4,0000.0,0006.05,0003.87,0003.52
2023-06-07 02:40:00,SystemResetWarning,0829.4,5.00,000.00,029.6,028.3,000.0,038.1,031.2,24.8,0000.0,0005.81,0003.77,0003.46
2023-06-07 02:41:00,SystemResetWarning,0829.4,5.00,000.00,029.6,028.3,000.0,038.1,031.2,24.3,0000.0,0005.73,0003.71,0003.41
2023-06-07 02:42:00,SystemResetWarning,0829.4,5.00,000.00,029.7,028.1,000.0,038.1,031.2,23.9,0000.0,0005.87,0003.65,0003.35
2023-06-07 02:43:00,SystemResetWarning,0829.4,4.98,000.00,029.7,026.2,000.0,038.1,031.2,24.4,0000.0,0005.76,0003.58,0003.30
2023-06-07 02:44:00,SystemResetWarning,0829.3,5.00,000.00,029.7,025.0,000.0,038.0,031.1,24.6,0000.0,0006.85,0003.55,0003.25
2023-06-07 02:45:00,SystemResetWarning,0829.3,5.01,000.00,029.6,024.9,000.0,038.0,030.9,24.8,0000.0,0007.57,0003.52,0003.22
2023-06-07 02:46:00,SystemResetWarning,0829.3,5.02,000.00,029.5,025.3,000.0,038.0,030.7,25.0,0000.0,0007.59,0003.51,0003.18
2023-06-07 02:47:00,SystemResetWarning,0829.3,4.99,000.00,029.4,025.7,000.0,038.0,030.6,25.1,0000.0,0007.60,0003.49,0003.15
2023-06-07 02:48:00,SystemResetWarning,0829.3,5.00,000.00,029.4,026.1,000.0,038.0,030.7,25.3,0000.0,0007.57,0003.44,0003.12
2023-06-07 02:49:00,SystemResetWarning,0829.3,5.01,000.00,029.4,026.5,000.0,038.0,030.7,25.2,0000.0,0007.55,0003.40,0003.11
2023-06-07 02:50:00,SystemResetWarning,0829.4,5.00,000.00,029.4,026.8,000.0,038.0,030.7,25.0,0000.0,0007.47,0003.36,0003.10
2023-06-07 02:51:00,SystemResetWarning,0829.3,5.00,000.00,029.4,027.1,000.0,038.0,030.8,25.0,0000.0,0007.49,0003.38,0003.10
2023-06-07 02:52:00,SystemResetWarning,0829.3,5.00,000.00,029.4,027.3,000.0,038.0,030.8,25.0,0000.0,0007.50,0003.40,0003.11
2023-06-07 02:53:00,SystemResetWarning,0829.4,5.00,000.00,029.4,027.5,000.0,038.0,030.9,24.9,0000.0,0007.42,0003.41,0003.11
2023-06-07 02:54:00,SystemResetWarning,0829.5,4.99,000.00,029.4,027.7,000.0,038.0,030.9,24.9,0000.0,0007.35,0003.42,0003.11
2023-06-07 02:55:00,SystemResetWarning,0829.6,4.99,000.00,029.4,027.8,000.0,038.0,031.0,24.7,0000.0,0006.24,0003.42,0003.11
2023-06-07 02:56:00,SystemResetWarning,0829.7,5.00,000.00,029.5,027.9,000.0,038.0,031.0,24.6,0000.0,0005.49,0003.42,0003.11
2023-06-07 02:57:00,SystemResetWarning,0829.7,5.00,000.00,029.5,028.0,000.0,038.0,031.0,24.8,0000.0,0005.80,0003.41,0003.10
2023-06-07 02:58:00,SystemResetWarning,0829.7,5.00,000.00,029.5,028.1,000.0,038.0,031.0,24.8,0000.0,0005.78,0003.41,0003.10
2023-06-07 02:59:00,SystemResetWarning,0829.7,5.00,000.00,029.5,028.1,000.0,038.0,031.0,24.6,0000.0,0005.83,0003.43,0003.10
